TimeEDT,TemperatureF,Dew PointF,Humidity,Sea Level PressureIn,VisibilityMPH,Wind Direction,Wind SpeedMPH,Gust SpeedMPH,PrecipitationIn,Events,Conditions,WindDirDegrees,DateUTC
12:56 AM,63.0,51.1,65,29.93,-9999.0,WNW,5.8,-,N/A,,Unknown,300,2013-08-03 04:56:00
1:56 AM,62.1,52.0,70,29.94,-9999.0,NW,11.5,-,N/A,,Unknown,310,2013-08-03 05:56:00
2:56 AM,61.0,51.1,70,29.95,-9999.0,WNW,9.2,-,N/A,,Unknown,300,2013-08-03 06:56:00
3:56 AM,60.1,52.0,75,29.96,-9999.0,NW,10.4,-,N/A,,Unknown,310,2013-08-03 07:56:00
4:56 AM,61.0,53.1,75,29.96,-9999.0,NNW,8.1,-,N/A,,Unknown,330,2013-08-03 08:56:00
5:56 AM,60.1,52.0,75,29.97,-9999.0,NW,8.1,-,N/A,,Unknown,320,2013-08-03 09:56:00
6:56 AM,61.0,52.0,72,29.99,-9999.0,NW,9.2,-,N/A,,Unknown,320,2013-08-03 10:56:00
7:56 AM,61.0,53.1,75,30.00,-9999.0,NNW,12.7,-,N/A,,Unknown,330,2013-08-03 11:56:00
8:56 AM,61.0,53.1,75,30.01,-9999.0,NNW,12.7,-,N/A,,Unknown,340,2013-08-03 12:56:00
9:56 AM,61.0,54.0,78,30.01,-9999.0,North,11.5,-,N/A,,Unknown,350,2013-08-03 13:56:00
10:56 AM,62.1,52.0,70,30.02,-9999.0,NW,9.2,-,N/A,,Unknown,320,2013-08-03 14:56:00
11:56 AM,63.0,54.0,72,30.04,-9999.0,NNW,11.5,-,N/A,,Unknown,330,2013-08-03 15:56:00
12:56 PM,64.0,54.0,70,30.05,-9999.0,NNW,16.1,-,N/A,,Unknown,340,2013-08-03 16:56:00
1:56 PM,64.0,55.0,73,30.07,-9999.0,North,15.0,20.7,N/A,,Unknown,360,2013-08-03 17:56:00
2:56 PM,64.0,53.1,67,30.07,-9999.0,NNW,11.5,-,N/A,,Unknown,330,2013-08-03 18:56:00
3:56 PM,64.9,53.1,65,30.08,-9999.0,NW,16.1,21.9,N/A,,Unknown,320,2013-08-03 19:56:00
4:56 PM,64.0,52.0,65,30.09,-9999.0,NW,12.7,-,N/A,,Unknown,320,2013-08-03 20:56:00
5:56 PM,64.0,53.1,67,30.09,-9999.0,NNW,10.4,-,N/A,,Unknown,330,2013-08-03 21:56:00
6:56 PM,64.0,52.0,65,30.10,-9999.0,NNW,11.5,-,N/A,,Unknown,340,2013-08-03 22:56:00
7:56 PM,62.1,53.1,72,30.10,-9999.0,NNW,9.2,-,N/A,,Unknown,330,2013-08-03 23:56:00
8:56 PM,61.0,53.1,75,30.10,-9999.0,NNW,9.2,-,N/A,,Unknown,330,2013-08-04 00:56:00
9:56 PM,61.0,52.0,72,30.11,-9999.0,NNW,9.2,-,N/A,,Unknown,330,2013-08-04 01:56:00
10:56 PM,61.0,53.1,75,30.12,-9999.0,North,9.2,-,N/A,,Unknown,350,2013-08-04 02:56:00
11:56 PM,60.1,53.1,78,30.13,-9999.0,North,11.5,-,N/A,,Unknown,350,2013-08-04 03:56:00